Home > Time Zones > World Clock > Weather > India > Sikar > Past weeks

Flag for India Weather past 2 weeks in Sikar, Rajasthan, India

Now
97 °F

Haze.


Feels Like: 93 °F
Forecast: 85 / 109 °F
Wind: 5 mph from West

Location: Jaipur / Sanganer

Current Time: May 22, 2015 at 10:06:40 PM

Latest Report: May 22, 2015 at 9:00 PM


Visibility: 2 mi

Pressure: 29.59 "Hg

Humidity: 16%

Dew point: 43 °F

Location of SikarLocation

Historic Weather in Sikar — Graph

°F

Sikar temperature yesterday

Maximum temperature yesterday: 109 °F (at 1:00 PM)
Minimum temperature yesterday: 84 °F (at 4:00 AM)
Average temperature yesterday: 95 °F

Past Weeks' High & Low Weather Summary

 TemperatureHumidityPressure
High111 °F (May 18, 3:00 PM)62% (May 11, 10:00 PM)29.89 "Hg (May 11, 10:00 PM)
Low77 °F (May 15, 5:00 AM)5% (May 9, 2:00 PM)29.56 "Hg (May 22, 6:00 PM)
Average92 °F28%29.73 "Hg
* Reported May 7 8:00 PM — May 22 8:00 PM, Sikar, Weather by CustomWeather, © 2015

Note: Actual official high and low records may vary slightly from our data, if they occured in-between our weather recording intervals... More about our weather records

Advertising

Sikar weather history for previous 24 hours

 ConditionsComfort  
Time TempWeatherWind HumidityBarometerVisibility
8:00 PM
Fri, May 22
100 °FHaze.6 mph13%29.59 "Hg2 mi
7:00 PM104 °FHaze.10 mph11%29.56 "Hg2 mi
6:00 PM108 °FHaze.15 mph10%29.56 "Hg2 mi
3:00 PM109 °FScattered clouds.16 mph8%29.59 "Hg2 mi
1:00 PM108 °FPassing clouds.15 mph11%29.65 "HgN/A
12:00 PM106 °FClear.14 mph13%29.68 "Hg4 mi
11:00 AM102 °FClear.15 mph18%29.68 "Hg4 mi
10:00 AM100 °FClear.15 mph24%29.68 "Hg4 mi
9:00 AM93 °FHaze.7 mph30%29.68 "Hg3 mi
8:00 AM90 °FHaze.5 mph31%29.68 "Hg3 mi
7:00 AM84 °FHaze.5 mph37%29.68 "Hg3 mi
5:00 AM84 °FPassing clouds.3 mph37%29.65 "Hg2 mi
4:00 AM84 °FPassing clouds.5 mph37%29.65 "Hg2 mi
3:00 AM84 °FPassing clouds.5 mph37%29.65 "Hg2 mi
2:00 AM86 °FPassing clouds.6 mph33%29.65 "Hg2 mi
1:00 AM86 °FPassing clouds.No wind35%29.65 "Hg2 mi
12:00 AM88 °FPassing clouds.No wind29%29.68 "Hg2 mi
11:00 PM
Thu, May 21
90 °FPassing clouds.5 mph29%29.71 "Hg2 mi
10:00 PM91 °FPassing clouds.7 mph26%29.71 "Hg2 mi
Weather by CustomWeather, © 2015

See weather overviewHow to use our weather pages